Weather History for KDFW - October, 2012

Change the Weather History Date:

Friday, October 26, 2012

  Actual Average Record
Temperature  
Mean Temperature 52 °F 64 °F  
Max Temperature 57 °F 75 °F 92 °F (1950)
Min Temperature 46 °F 54 °F 33 °F (1898)
Degree Days  
Heating Degree Days 13 4  
Month to date heating degree days 53 46  
Since 1 July heating degree days 53 52  
Cooling Degree Days 0 3  
Month to date cooling degree days 164 132  
Year to date cooling degree days 3281 2709  
Growing Degree Days 2 (Base 50)    
Moisture  
Dew Point 35 °F    
Average Humidity 56    
Maximum Humidity 71    
Minimum Humidity 41    
Precipitation  
Precipitation T in 0.15 in 2.78 in (1991)
Month to date precipitation 1.02 3.50  
Year to date precipitation 29.26 30.16  
Snow  
Snow 0.00 in 0.00 in 0.00 in ()
Month to date snowfall 0.0 0.0  
Since 1 July snowfall 0.0 0.0  
Since 1 September snowfall 0.0 0.0  
Snow Depth 0.00 in    
Sea Level Pressure  
Sea Level Pressure 30.21 in    
Wind  
Wind Speed 17 mph (North)    
Max Wind Speed 26 mph    
Max Gust Speed 35 mph    
Visibility 10 miles    
Events Rain    
T = Trace of Precipitation, MM = Missing Value Source: NWS Daily Summary

Daily Weather History Graph

Daily Weather History Graph

Search for Another Location

Airport or City:

Trip Planner

Search our weather history database for the weather conditions in past years. The results will help you decide how hot, cold, wet, or windy it might be!

Date:

Astronomy

Oct. 26, 2012 Rise Set
Actual Time 7:41 AM CDT 6:42 PM CDT
Civil Twilight 7:16 AM CDT 7:07 PM CDT
Nautical Twilight 6:47 AM CDT 7:36 PM CDT
Astronomical Twilight 6:18 AM CDT 8:05 PM CDT
Moon 4:52 PM CDT (10/26) 4:46 AM CDT (10/26)
Length of Visible Light 11h 51m
Length of Day
11h 00m
Waxing Gibbous, 91% of the Moon is Illuminated
Oct 26
Waxing Gibbous
Oct 29
Full
Nov 6
Last Quarter
Nov 13
New
Nov 20
First Quarter

Hourly Weather History & Observations

Time (CDT) Temp. Dew Point Humidity Pressure Visibility Wind Dir Wind Speed Gust Speed Precip Events Conditions
12:53 AM 54.0 °F 39.0 °F 57% 30.08 in 10.0 mi North 19.6 mph 26.5 mph N/A   Overcast
1:53 AM 53.1 °F 39.0 °F 59% 30.09 in 10.0 mi North 16.1 mph 26.5 mph N/A   Overcast
2:53 AM 53.1 °F 39.0 °F 59% 30.11 in 10.0 mi North 20.7 mph - N/A   Overcast
3:53 AM 52.0 °F 37.9 °F 59% 30.10 in 10.0 mi North 16.1 mph 25.3 mph N/A   Overcast
4:53 AM 51.1 °F 37.9 °F 61% 30.09 in 10.0 mi North 21.9 mph 26.5 mph N/A   Overcast
5:53 AM 51.1 °F 37.9 °F 61% 30.11 in 10.0 mi North 21.9 mph 27.6 mph N/A   Overcast
6:53 AM 50.0 °F 37.9 °F 63% 30.16 in 10.0 mi NNE 16.1 mph 24.2 mph N/A   Overcast
7:45 AM 48.2 °F 39.2 °F 71% 30.19 in 10.0 mi North 19.6 mph - 0.00 in Rain Light Rain
7:53 AM 48.2 °F 39.2 °F 71% 30.19 in 10.0 mi North 18.4 mph 23.0 mph N/A   Overcast
8:53 AM 48.9 °F 37.9 °F 66% 30.22 in 10.0 mi North 13.8 mph 25.3 mph N/A   Mostly Cloudy
9:53 AM 50.0 °F 37.9 °F 63% 30.23 in 10.0 mi North 18.4 mph 27.6 mph N/A   Overcast
10:53 AM 50.0 °F 37.0 °F 61% 30.25 in 10.0 mi North 23.0 mph 27.6 mph N/A   Overcast
11:53 AM 50.0 °F 37.0 °F 61% 30.27 in 10.0 mi North 18.4 mph - N/A   Overcast
12:53 PM 52.0 °F 37.0 °F 57% 30.27 in 10.0 mi North 21.9 mph 28.8 mph N/A   Overcast
1:53 PM 52.0 °F 36.0 °F 54% 30.25 in 10.0 mi North 19.6 mph 25.3 mph N/A   Mostly Cloudy
2:21 PM 53.6 °F 35.6 °F 51% 30.25 in 10.0 mi NNE 18.4 mph 27.6 mph N/A   Mostly Cloudy
2:53 PM 55.9 °F 36.0 °F 47% 30.24 in 10.0 mi North 17.3 mph 24.2 mph N/A   Scattered Clouds
3:53 PM 55.9 °F 34.0 °F 44% 30.22 in 10.0 mi North 18.4 mph 26.5 mph N/A   Scattered Clouds
4:53 PM 55.0 °F 33.1 °F 43% 30.23 in 10.0 mi North 21.9 mph 29.9 mph N/A   Partly Cloudy
5:53 PM 54.0 °F 30.9 °F 41% 30.23 in 10.0 mi North 13.8 mph - N/A   Partly Cloudy
6:53 PM 52.0 °F 30.9 °F 45% 30.25 in 10.0 mi North 13.8 mph - N/A   Partly Cloudy
7:53 PM 51.1 °F 30.0 °F 44% 30.28 in 10.0 mi North 11.5 mph - N/A   Clear
8:53 PM 51.1 °F 30.0 °F 44% 30.29 in 10.0 mi North 15.0 mph 20.7 mph N/A   Partly Cloudy
9:53 PM 50.0 °F 28.9 °F 44% 30.30 in 10.0 mi North 16.1 mph - N/A   Partly Cloudy
10:53 PM 48.9 °F 28.0 °F 44% 30.31 in 10.0 mi North 13.8 mph - N/A   Clear
11:53 PM 48.0 °F 28.9 °F 48% 30.31 in 10.0 mi NNE 13.8 mph - N/A   Partly Cloudy